sat.trackr.live / text

‹ back to catalog

STARLINK-37011

NORAD 68217 · 2026-053L

PAYLOAD ACTIVE UNKNOWN

§ Identity

Operator
Country
US
Launch date
2026-03-17
Launch site
AFWTR
Launch vehicle
Mass (kg)
RCS (m²)

Purposes: comms

External: N2YO · Heavens-Above · Gunter

§ Orbital elements

Epoch: 2026-09-19T09:34:50.835936Z

Period
93.91 min
Inclination
97.2845°
Eccentricity
0.0002306
Mean motion
15.33442020 rev/d
Perigee alt
464.0 km
Apogee alt
467.1 km
Semi-major
6,843.7 km
B*
3.4938e-4
RAAN
136.1770°
Arg perigee
90.2496°
Mean anomaly
269.9011°
Rev number
2,990

§ Raw data

STARLINK-370111 68217U 26053L   26262.39919949  .00011220  00000+0  34938-3 0  99962 68217  97.2845 136.1770 0002306  90.2496 269.9011 15.33442020 29909

JSON: /api/v1/satellites/68217 · /tle

For live sub-satellite position, see the globe view (requires WebGL).

§ Visibility from observer

Set your observer location to see the next 7 days of passes ≥ 10°. The values pass through the URL so the page stays shareable.

No JS? Fill the form by hand. The geolocation button needs JavaScript.